www.pogodaiklimat.ru

Погода и климат >> Архив погоды >> Бразилия >> Парана >> Фос-ду-Игуасу


ПОГОДА в Фос-ду-Игуасу

  • Прогноз погоды в Фос-ду-Игуасу
  • Монитор погоды в Фос-ду-Игуасу

АРХИВ ПОГОДЫ в Фос-ду-Игуасу

Время (UTC), дата Ветер
(напр.,м/с)
 
Видим.   Явления Облачность Т
(С)
Тd
(С)
f
(%)
Тe
(С)
Тes
(С)
Комфортность P
(гПа)
Po
(гПа)
Тmin
(С)
Tmax
(С)
R
(мм)
R24
(мм)
S
(см)
19 15.08 СЗ 1
{2}
н/о н/о +24.9 +10.8 41 +26 +26 жарко 1019.5 992.4
20 15.08 СЗ 1
{2}
н/о н/о +24.3 +10.4 41 +25 +25 комфорт 1019.8 992.6
21 15.08 С 1
{2}
н/о н/о +22.2 +9.7 45 +24 +24 комфорт 1019.7 992.3
22 15.08 штиль 0
{1}
н/о н/о +20.6 +9.2 48 +22 +22 комфорт 1019.8 992.3
00 16.08 З 1
{2}
н/о н/о +16.3 +9.2 63 +17 +17 1020.4 992.5
01 16.08 З 1
{2}
н/о н/о +14.9 +9.7 71 +15 +15 1020.4 992.3
02 16.08 З 1
{2}
н/о н/о +14.9 +10.3 74 +15 +15 1020.6 992.5
03 16.08 З 1
{2}
н/о н/о +14.8 +10.6 76 +15 +15 1020.7 992.6
04 16.08 ЮЗ 2
{2}
н/о н/о +15.5 +11.5 77 +16 +16 1020.4 992.4
05 16.08 ЮЗ 1
{2}
н/о н/о +15.2 +11.2 77 +16 +16 1020.0 992.0
06 16.08 ЮЗ 2
{3}
н/о н/о +16.2 +11.9 76 +16 +16 1019.7 991.8
07 16.08 ЮЗ 3
{4}
н/о н/о +16.2 +12.0 76 +16 +16 1019.5 991.6
08 16.08 ЮЗ 4
{4}
н/о н/о +15.9 +11.8 77 +15 +15 1019.3 991.4
09 16.08 ЮЗ 3
{6}
н/о н/о +16.0 +11.8 76 +16 +16 1019.6 991.7
10 16.08 ЮЗ 3
{6}
н/о н/о +15.6 +11.6 77 +15 +15 1020.1 992.1
11 16.08 ЮЗ 3
{5}
н/о н/о +16.5 +12.4 77 +16 +16 1020.4 992.5
13 16.08 ЮЗ 3
{5}
н/о н/о +21.0 +14.6 67 +25 +25 комфорт 1020.8 993.3
14 16.08 Ю 2
{4}
н/о н/о +24.3 +16.4 61 +28 +28 душно 1020.1 992.9
15 16.08 Ю 3
{6}
н/о н/о +27.3 +16.5 52 +31 +31 душно 1018.7 991.8
16 16.08 Ю 4
{7}
н/о н/о +28.9 +13.2 38 +30 +30 жарко 1017.4 990.7
17 16.08 Ю 3
{7}
н/о н/о +29.5 +12.7 36 +31 +31 жарко 1016.3 989.7
18 16.08 ЮВ 3
{5}
н/о н/о +28.4 +12.3 37 +30 +30 жарко 1015.5 988.8
19 16.08 ЮВ 3
{5}
н/о н/о +28.8 +12.1 36 +30 +30 жарко 1015.0 988.3
20 16.08 ЮВ 2
{4}
н/о н/о +28.5 +11.6 35 +29 +29 жарко 1015.0 988.3
21 16.08 Ю 2
{2}
н/о н/о +24.6 +10.4 41 +26 +26 жарко 1015.0 988.0
22 16.08 Ю 2
{3}
н/о н/о +22.4 +10.4 47 +24 +24 комфорт 1015.0 987.8
23 16.08 Ю 1
{3}
н/о н/о +22.0 +10.4 48 +24 +24 комфорт 1015.4 988.1
00 17.08 Ю 1
{2}
н/о н/о +19.7 +9.0 50 +22 +22 комфорт 1015.6 988.1
01 17.08 Ю 2
{3}
н/о н/о +21.7 +10.7 50 +24 +24 комфорт 1015.5 988.2
02 17.08 Ю 3
{4}
н/о н/о +22.0 +9.3 44 +23 +23 комфорт 1015.1 987.8
03 17.08 Ю 3
{4}
н/о н/о +20.6 +8.4 45 +22 +22 комфорт 1014.5 987.1
04 17.08 ЮЗ 2
{4}
н/о н/о +17.5 +6.7 49 +18 +18 1014.8 987.1
05 17.08 СЗ 1
{2}
н/о н/о +15.4 +8.1 62 +17 +17 1014.8 986.9
06 17.08 ЮЗ 2
{3}
н/о н/о +15.6 +8.9 64 +16 +16 1013.8 986.0
07 17.08 ЮЗ 2
{4}
н/о н/о +15.0 +8.6 66 +15 +15 1013.6 985.7
08 17.08 ЮЗ 2
{3}
н/о н/о +14.6 +8.6 67 +14 +14 1013.2 985.3
09 17.08 ЮЗ 2
{3}
н/о н/о +14.6 +9.0 69 +14 +14 1013.7 985.8
10 17.08 ЮЗ 3
{4}
н/о н/о +15.0 +8.7 66 +14 +14 1014.1 986.2
11 17.08 ЮЗ 1
{4}
н/о н/о +16.8 +10.2 65 +18 +18 1014.3 986.6
12 17.08 ЮЗ 2
{3}
н/о н/о +19.5 +11.7 61 +21 +21 комфорт 1014.0 986.5
13 17.08 ЮЗ 2
{3}
н/о н/о +23.6 +14.2 56 +26 +26 жарко 1013.8 986.7
14 17.08 Ю 4
{6}
н/о н/о +27.9 +12.2 38 +29 +29 жарко 1013.1 986.4
15 17.08 Ю 5
{7}
н/о н/о +29.7 +11.3 32 +30 +30 жарко 1011.7 985.2
16 17.08 ЮВ 5
{8}
н/о н/о +30.4 +11.1 30 +31 +31 жарко 1010.4 984.0
17 17.08 Ю 4
{7}
н/о н/о +30.2 +10.7 30 +30 +30 жарко 1009.2 982.8
18 17.08 ЮВ 3
{6}
н/о н/о +30.0 +10.8 30 +30 +30 жарко 1008.3 981.9
19 17.08 ЮВ 2
{5}
н/о н/о +29.2 +11.1 33 +30 +30 жарко 1007.8 981.4
20 17.08 Ю 2
{4}
н/о н/о +27.5 +11.3 36 +28 +28 жарко 1007.8 981.2
21 17.08 Ю 2
{3}
н/о н/о +25.5 +11.9 43 +27 +27 жарко 1008.2 981.4
22 17.08 Ю 2
{4}
н/о н/о +25.6 +12.2 43 +27 +27 жарко 1007.8 981.1
23 17.08 ЮЗ 3
{4}
н/о н/о +24.6 +11.2 43 +26 +26 жарко 1008.3 981.5
00 18.08 ЮЗ 2
{4}
н/о н/о +22.3 +10.4 47 +24 +24 комфорт 1009.1 982.0
01 18.08 З 1
{2}
н/о н/о +21.0 +10.9 52 +24 +24 комфорт 1009.8 982.6
02 18.08 Ю 1
{2}
н/о н/о +20.6 +10.8 53 +24 +24 комфорт 1010.5 983.2
03 18.08 ЮЗ 1
{2}
н/о н/о +19.9 +11.5 58 +22 +22 комфорт 1010.8 983.5
04 18.08 З 1
{2}
н/о н/о +19.0 +11.6 62 +21 +21 комфорт 1010.8 983.4
06 18.08 З 1
{2}
н/о н/о +19.3 +12.5 65 +22 +22 комфорт 1009.9 982.5
07 18.08 З 1
{2}
н/о н/о +18.8 +12.3 66 +21 +21 комфорт 1009.7 982.3
09 18.08 ЮЗ 1
{2}
н/о н/о +19.6 +13.5 68 +22 +22 комфорт 1009.9 982.6
10 18.08 ЮЗ 1
{2}
н/о н/о +19.1 +13.5 70 +21 +21 комфорт 1010.2 982.8
11 18.08 ЮЗ 1
{2}
н/о н/о +19.7 +14.1 70 +23 +23 комфорт 1010.9 983.5
12 18.08 ЮВ 1
{2}
н/о н/о +23.0 +15.6 63 +27 +27 душно 1011.1 984.0
13 18.08 В 1
{3}
н/о н/о +24.6 +16.1 59 +28 +28 душно 1011.9 985.0
14 18.08 ЮВ 2
{3}
н/о н/о +26.1 +16.3 55 +30 +30 душно 1011.6 984.8
15 18.08 ЮВ 2
{3}
н/о н/о +27.2 +16.1 51 +31 +31 душно 1011.4 984.7
16 18.08 В 1
{3}
н/о н/о +28.7 +17.1 49 +32 +32 душно 1010.6 984.1
17 18.08 В 1
{4}
н/о н/о +29.3 +17.1 48 +33 +33 душно 1009.8 983.3
18 18.08 З 1
{4}
н/о н/о +29.3 +16.6 46 +33 +33 душно 1009.4 982.9
19 18.08 З 1
{2}
н/о н/о +28.5 +16.6 49 +32 +32 душно 1009.6 983.1
20 18.08 З 1
{2}
н/о н/о +27.2 +16.5 52 +31 +31 душно 1010.0 983.3
21 18.08 СЗ 2
{3}
н/о н/о +24.9 +16.5 60 +28 +28 жарко 1010.5 983.6
22 18.08 СЗ 2
{3}
н/о н/о +23.3 +16.1 64 +28 +28 душно 1011.0 984.0
23 18.08 СЗ 2
{4}
н/о н/о +22.6 +16.1 67 +27 +27 душно 1011.8 984.7
00 19.08 СЗ 2
{4}
н/о н/о +22.0 +16.0 69 +26 +26 душно 1013.3 986.1
01 19.08 СЗ 2
{4}
н/о н/о +21.0 +15.8 72 +25 +25 комфорт 1013.7 986.4
02 19.08 СЗ 2
{4}
н/о н/о +20.3 +15.3 73 +24 +24 комфорт 1014.6 987.2
04 19.08 СЗ 2
{4}
н/о н/о +18.5 +13.7 74 +20 +20 1015.5 987.9
06 19.08 СЗ 2
{4}
н/о н/о +16.9 +12.5 75 +17 +17 1015.0 987.3
08 19.08 СЗ 2
{3}
н/о н/о +15.5 +11.6 78 +16 +16 1015.0 987.1
09 19.08 С 2
{3}
н/о н/о +14.6 +11.0 79 +15 +15 1015.9 987.9
10 19.08 С 2
{3}
н/о н/о +14.3 +10.6 78 +14 +14 1016.8 988.8
11 19.08 С 3
{4}
н/о н/о +13.5 +9.3 76 +13 +13 1017.5 989.4
13 19.08 СЗ 2
{4}
н/о н/о +16.2 +10.6 69 +16 +16 1018.3 990.4
14 19.08 СЗ 2
{4}
н/о н/о +18.4 +11.6 65 +19 +19 1017.9 990.2
17 19.08 СЗ 3
{4}
н/о н/о +22.2 +10.9 49 +24 +24 комфорт 1015.7 988.4
19 19.08 СЗ 2
{4}
н/о н/о +23.4 +9.1 40 +25 +25 комфорт 1014.5 987.4
20 19.08 СЗ 2
{5}
н/о н/о +23.0 +7.5 37 +24 +24 комфорт 1015.2 988.0
21 19.08 С 2
{4}
н/о н/о +20.3 +6.3 40 +22 +22 комфорт 1015.8 988.4
22 19.08 С 1
{4}
н/о н/о +17.9 +5.8 45 +19 +19 1016.7 989.0
23 19.08 С 1
{2}
н/о н/о +16.6 +6.6 52 +18 +18 1017.7 989.9
01 20.08 СЗ 1
{2}
н/о н/о +14.8 +7.6 62 +15 +15 1018.4 990.4
02 20.08 СЗ 2
{2}
н/о н/о +14.4 +7.5 63 +14 +14 1019.1 991.0
03 20.08 СЗ 1
{2}
н/о н/о +13.6 +6.9 64 +14 +14 1019.1 990.9
04 20.08 штиль 0
{2}
н/о н/о +12.5 +6.4 66 +12 +12 1018.7 990.4
05 20.08
{1}
н/о н/о +11.4 +6.2 70 1019.2 990.8
06 20.08 СЗ 1
{2}
н/о н/о +11.2 +7.0 75 +11 +11 1019.4 991.0
08 20.08 СЗ 1
{2}
н/о н/о +11.6 +7.7 77 +12 +12 1019.7 991.3
09 20.08 СЗ 1
{1}
н/о н/о +10.7 +7.4 80 +11 +11 1020.2 991.7
10 20.08 С 1
{1}
н/о н/о +9.6 +6.5 81 +9 +9 1021.2 992.6
11 20.08 С 1
{2}
н/о н/о +10.1 +7.4 83 +11 +11 1022.4 993.8
12 20.08 СЗ 1
{3}
н/о н/о +13.2 +10.3 83 +13 +13 1022.5 994.2
14 20.08 З 1
{3}
н/о н/о +19.9 +14.1 69 +23 +23 комфорт 1021.9 994.3
15 20.08 СЗ 1
{2}
н/о н/о +22.0 +14.9 64 +25 +25 комфорт 1020.9 993.5
17 20.08 СЗ 1
{3}
н/о н/о +24.4 +15.3 57 +27 +27 жарко 1019.8 992.6
18 20.08 СЗ 1
{3}
н/о н/о +25.1 +15.2 54 +28 +28 жарко 1019.1 992.0
19 20.08 С 2
{3}
н/о н/о +24.8 +14.3 52 +27 +27 жарко 1019.3 992.2
20 20.08 С 2
{3}
н/о н/о +24.7 +12.5 47 +27 +27 жарко 1019.3 992.2
21 20.08 С 1
{3}
н/о н/о +22.3 +10.8 48 +24 +24 комфорт 1020.0 992.6
01 21.08 СЗ 1
{2}
н/о н/о +15.7 +7.4 58 +16 +16 1021.8 993.8
02 21.08 С 1
{2}
н/о н/о +14.1 +7.3 64 +15 +15 1022.0 993.8
03 21.08 штиль 0
{2}
н/о н/о +13.3 +7.1 66 +13 +13 1022.0 993.7
04 21.08 С 1
{1}
н/о н/о +12.0 +6.7 70 +13 +13 1022.1 993.7
05 21.08 СЗ 1
{1}
н/о н/о +11.6 +7.3 75 +12 +12 1022.0 993.6
06 21.08 З 1
{2}
н/о н/о +11.6 +7.6 76 +11 +11 1021.9 993.5
07 21.08 СЗ 1
{2}
н/о н/о +10.8 +7.4 80 +11 +11 1021.9 993.4
09 21.08 С 1
{1}
н/о н/о +9.6 +6.8 83 +10 +10 1022.7 994.0
11 21.08 З 1
{2}
н/о н/о +12.3 +9.7 84 +12 +12 1023.9 995.5
12 21.08 З 1
{2}
н/о н/о +15.0 +11.7 81 +15 +15 1024.4 996.2
13 21.08 ЮЗ 2
{4}
н/о н/о +18.2 +13.4 74 +19 +19 1024.2 996.3
14 21.08 ЮЗ 1
{3}
н/о н/о +20.5 +14.2 67 +24 +24 комфорт 1023.6 996.0
16 21.08 СЗ 1
{2}
н/о н/о +24.0 +13.6 52 +26 +26 жарко 1021.8 994.5
17 21.08 СВ 1
{3}
н/о н/о +24.7 +13.0 48 +27 +27 жарко 1020.5 993.3
18 21.08
{2}
н/о н/о +25.5 +12.5 44 1019.8 992.7
19 21.08 С 2
{3}
н/о н/о +25.2 +11.6 43 +27 +27 жарко 1019.2 992.1
20 21.08 СЗ 1
{3}
н/о н/о +24.9 +7.9 34 +25 +25 комфорт 1019.2 992.1
21 21.08 С 1
{2}
н/о н/о +22.2 +7.8 40 +23 +23 комфорт 1019.7 992.3
22 21.08 СЗ 1
{1}
н/о н/о +19.2 +7.1 45 +21 +21 комфорт 1019.6 992.0
23 21.08 З 1
{1}
н/о н/о +17.6 +6.9 49 +19 +19 1019.8 992.0
00 22.08 З 1
{2}
н/о н/о +16.9 +8.0 56 +18 +18 1019.9 992.0
01 22.08 З 1
{2}
н/о н/о +15.3 +7.4 59 +16 +16 1020.3 992.3
02 22.08 З 1
{2}
н/о н/о +14.2 +7.5 64 +15 +15 1020.2 992.1
03 22.08 З 1
{2}
н/о н/о +12.9 +7.1 68 +13 +13 1020.2 991.9
04 22.08 ЮЗ 1
{2}
н/о н/о +12.6 +7.3 70 +13 +13 1020.1 991.8
05 22.08 З 1
{2}
н/о н/о +11.7 +6.9 72 +12 +12 1019.5 991.1
06 22.08 З 1
{2}
н/о н/о +11.9 +7.5 74 +12 +12 1018.9 990.6
09 22.08 З 2
{3}
н/о н/о +12.5 +8.6 77 +12 +12 1019.6 991.3
11 22.08 ЮЗ 3
{4}
н/о н/о +14.1 +9.7 75 +13 +13 1021.5 993.3
12 22.08 ЮЗ 3
{4}
н/о н/о +16.5 +11.3 71 +16 +16 1022.1 994.1
13 22.08 ЮЗ 3
{4}
н/о н/о +19.1 +12.8 67 +21 +21 комфорт 1022.3 994.6
14 22.08 ЮЗ 2
{3}
н/о н/о +21.4 +13.9 62 +24 +24 комфорт 1021.3 993.8
16 22.08 ЮВ 2
{3}
н/о н/о +25.7 +15.0 52 +29 +29 душно 1020.1 993.0
17 22.08 ЮВ 2
{4}
н/о н/о +25.6 +14.1 49 +28 +28 жарко 1019.2 992.2
18 22.08 В 1
{4}
н/о н/о +25.9 +13.9 47 +28 +28 жарко 1018.6 991.6
19 22.08 С 1
{3}
н/о н/о +25.7 +13.8 48 +28 +28 жарко 1018.4 991.4

 

Местоположение метеостанции Фос-ду-Игуасу (Парана, Бразилия): широта -25.60 долгота -54.48 высота над уровнем моря 233 м.

В архиве по умолчанию представлена погода в Фос-ду-Игуасу за последнюю неделю. Архивные данные за месяц целиком и за предыдущие месяцы, начиная с января 2011 года, Вы можете получить, выбрав интересующий диапазон дат из раскрывающегося списка и нажав кнопку "Ввод!".


*Определитесь, кто Вы:
робот инопланетянин человек

Внимание! Время в таблицах - всемирное. Для получения местного времени необходимо прибавить поправку, которая равна -3 ч.

Смотрите также архив погоды в соседних городах и на ближайших метеорологических станциях:

Погода в Фос-ду-Игуасу (Парана, Бразилия) (14 км)
Погода в Игуасу (Аргентина) (15 км)
Погода в Аэропорту Гуарани (Парагвай) (41 км)
Погода в Планарту (Парана, Бразилия) (74 км)
Погода в Дионисио Серкейра (Парана, Бразилия) (114 км)
Погода в Марешал-Кандиду-Рондоне (Парана, Бразилия) (128 км)
Погода в Дойс-Визиньюсе (Парана, Бразилия) (139 км)
Погода в Сан-Мигель-ду-Осте (Санта-Катарина, Бразилия) (164 км)
Погода в Капитан Меса (Парагвай) (164 км)
Погода в Сальто-дель-Гуайре (Парагвай) (173 км)

Пояснения к столбцам:

Ветер - указаны скорость ветра в м/с - средняя за 10 мин, порывы в срок и между сроками (в фигурных скобках) и направление, откуда дует ветер: С - северный, СВ - северо-восточный, В - восточный, ЮВ - юго-восточный, Ю - южный, ЮЗ - юго-западный, З - западный, СЗ - северо-западный.
Видимость - горизонтальная дальность видимости в метрах или километрах. При видимости от 1 до 10 км при отсутствии осадков обычно наблюдается дымка, при ухудшении видимости до 1 км и менее - туман. В сухую погоду видимость может ухудшаться дымом, пылью или мглою.
Явления - указаны атмосферные явления, наблюдавшиеся в срок или в последний час перед сроком; фигурными скобками обозначены явления, наблюдавшиеся между сроками (за 1-3 часа до срока); квадратными скобками обозначены град или гололедные отложения с указанием их диаметра в мм.
Облачность - указаны через наклонную черту общая и нижняя облачность в баллах и высота нижней границы облаков в метрах; квадратными скобками обозначены формы облаков: Ci - перистые, Cs - перисто-слоистые, Cc - перисто-кучевые, Ac - высококучевые, As - высокослоистые, Sc - слоисто-кучевые, Ns - слоисто-дождевые, Cu - кучевые, Cb - кучево-дождевые. Подробнее классификацию облаков см. в Атласе облаков (PDF).
T - Температура воздуха - температура, измеренная на высоте 2 м над землей.
Td - Температура точки росы - температура, при понижении до которой содержащийся в воздухе водяной пар достигнет насыщения.
f - Относительная влажность воздуха - влажноcть воздуха, измеренная на высоте 2 м над землей.
Te - Эффективная температура - температура, которую ощущает одетый по сезону человек в тени. Характеристика душности погоды. При расчете учитывается влияние влажности воздуха и скорости ветра на теплоощущения человека.
Tes - Эффективная температура на солнце - температура, которую ощущает человек, с поправкой на солнечный нагрев. Характеристика знойности погоды. Зависит от высоты солнца над горизонтом, облачности и скорости ветра. Ночью, в пасмурную погоду, а также при ветре 12 м/с и более поправка равна нулю.
P - Атмосферное давление - приведенное к уровню моря атмосферное давление.
Po - Атмосферное давление - измеренное на уровне метеостанции атмосферное давление.
Tmin - Минимальная температура - минимум температуры воздуха на высоте 2 м над землей.
Tmax - Максимальная температура - максимум температуры воздуха на высоте 2 м над землей.
R - Количество осадков - Количество выпавших осадков за период времени, мм. При наведении курсора мыши на число - период времени, за который выпало указанное количество осадков.
R24 - Количество осадков - Количество выпавших осадков за 24 часа, мм.
S - Снежный покров - Высота снежного покрова, см. При наведении курсора мыши на число - состояние снежного покрова и степень покрытия местности в баллах.